Location: Arborea
(39.7744°N, 8.5819°E)
Time: 18:36:58
(UTC+00:00)

Okean-O - Pass Details

Date: 30 May 2022
Orbit: 638 x 640 km, 98.1° (Epoch: 27 June)

Event Time Altitude Azimuth Distance (km) Brightness Sun altitude
Rises 20:15:39 0° 211° (SSW) 2,930 5.9 -14.4°
Reaches altitude 10° 20:18:51 10° 236° (SW) 2,027 5.3 -14.8°
Maximum altitude 20:21:12 14° 268° (W) 1,769 5.5 -15.2°
Drops below altitude 10° 20:23:33 10° 301° (WNW) 2,035 6.4 -15.5°
Sets 20:26:47 0° 326° (NW) 2,949 7.8 -15.9°
